STARLINK-1057 (44762 NORAD) Tracking and Keplerian Element Data

This shows tracking and keplerian element data for the satellite.

Feedback or suggestion? Click here.




ElementValue
Catalog44762
NameSTARLINK-1057
Epoch Orbit161
Epoch Day93.91667824
Epoch Year2020
RAAN213.6379
Inclination52.9986
Eccentricity0.0001431
Argument of Perigee62.4215
Mean Anonmoly13.9177
Mean Motion15.05586177
Decay Rate-0.00020555
L11 44762U 19074BB 20093.91667824 -.00020555 00000-0 -13954-2 0 9994
L22 44762 52.9986 213.6379 0001431 62.4215 13.9177 15.05586177 1615

Live tracking and technical data element details for STARLINK-1057 (NORAD 44762). STARLINK-1057 can be tracked NOW for your location showing map with azimuth and elevation plus other details from your city location.

Track the satellite on the map from your city or location and see movement details for azimuth, elevation, latitude, longitude, range, height, and movement on the map or in text.







IsCatalogInMostPopularTable: catalog: 44762, numindb: 45
Update: records affected: 1



GetName: 44762 STARLINK-1057

Hit Count: updated at: Fri, 10 Apr 2020 18:39:08 GMT